Flag for U.S.A. Weather past 2 weeks in Alexandria, Virginia, U.S.A.

Now
69 °F

Scattered clouds.


Feels Like: 69 °F
Forecast: 62 / 76 °F
Wind: 6 mph from Northwest

Location: Reagan National Airport

Current Time: Sep 16, 2014 at 8:24:57 AM

Latest Report: Sep 16, 2014 at 7:52 AM


Visibility: 10 mi

Pressure: 30.03 "Hg

Humidity: 68%

Dew point: 58 °F

Location of AlexandriaLocation

Historic Weather in Alexandria — Graph

°F

Alexandria temperature yesterday

Maximum temperature yesterday: 77 °F (at 3:52 PM)
Minimum temperature yesterday: 59 °F (at 5:52 AM)
Average temperature yesterday: 68 °F

Past Weeks' High & Low Weather Summary

 TemperatureHumidityPressure
High95 °F (Sep 2, 3:52 PM)85% (Sep 1, 6:52 AM)30.33 "Hg (Sep 1, 6:52 AM)
Low56 °F (Sep 14, 5:52 AM)31% (Sep 7, 4:52 PM)29.86 "Hg (Sep 2, 6:52 PM)
Average76 °F64%30.09 "Hg
* Reported Sep 1 6:52 AM — Sep 16 6:52 AM, Alexandria, Weather by CustomWeather, © 2014

Note: Actual official high and low records may vary slightly from our data, if they occured in-between our weather recording intervals... More about our weather records

Advertising

Alexandria weather history for previous 24 hours

 ConditionsComfort  
Time TempWeatherWind HumidityBarometerVisibility
6:52 AM
Sep 16
67 °FPassing clouds.3 mph79%30.01 "Hg10 mi
5:52 AM66 °FPassing clouds.3 mph81%30.01 "Hg10 mi
4:52 AM67 °FPartly cloudy.3 mph79%30.01 "Hg10 mi
3:52 AM68 °FOvercast.3 mph78%30.01 "Hg10 mi
2:52 AM68 °FMostly cloudy.6 mph78%30.02 "Hg10 mi
1:52 AM68 °FMostly cloudy.6 mph76%30.04 "Hg10 mi
12:52 AM68 °FPassing clouds.6 mph76%30.04 "Hg10 mi
11:52 PM
Sep 15
68 °FPassing clouds.7 mph73%30.05 "Hg10 mi
10:52 PM69 °FPassing clouds.12 mph68%30.08 "Hg10 mi
9:52 PM69 °FPassing clouds.10 mph68%30.09 "Hg10 mi
8:52 PM70 °FPassing clouds.12 mph61%30.10 "Hg10 mi
7:52 PM70 °FPartly sunny.12 mph61%30.11 "Hg10 mi
6:52 PM73 °FPartly sunny.5 mph46%30.11 "Hg10 mi
5:52 PM75 °FBroken clouds.9 mph43%30.12 "Hg10 mi
4:52 PM76 °FBroken clouds.8 mph42%30.13 "Hg10 mi
3:52 PM77 °FPartly sunny.8 mph37%30.14 "Hg10 mi
2:52 PM76 °FBroken clouds.7 mph39%30.16 "Hg10 mi
1:52 PM73 °FBroken clouds.No wind40%30.18 "Hg10 mi
12:52 PM74 °FPartly sunny.3 mph41%30.20 "Hg10 mi
11:52 AM71 °FBroken clouds.3 mph53%30.23 "Hg10 mi
10:52 AM70 °FScattered clouds.3 mph57%30.25 "Hg10 mi
9:52 AM68 °FPassing clouds.No wind59%30.26 "Hg10 mi
8:52 AM64 °FScattered clouds.5 mph65%30.25 "Hg10 mi
Weather by CustomWeather, © 2014

See weather overviewHow to use our weather pages